User: anonymous   Login
Location: Paris
(18.5000°N, 73.9167°W)
Time: 10:07:47
(UTC+00:00)
Language:

Meteor 2-11 Rocket - Orbit

View from above orbital plane
View from above orbital plane
View from above satellite
View from above satellite

Ground track
Ground track

The orbit data is extracted from the following two-line orbital elements,

1 15100U 84072B   24169.79078557  .00000029  00000-0  12999-4 0  9993
2 15100  82.5304 266.0191 0012104  13.4380 346.7100 13.84502793 18544
Epoch (UTC): 17 June 2024 18:58:43
Eccentricity: 0.0012104
inclination: 82.5304°
perigee height: 939 km
apogee height: 957 km
right ascension of ascending node: 266.0191°
argument of perigee: 13.4380°
revolutions per day: 13.84502793
mean anomaly at epoch: 346.7100°
orbit number at epoch: 1854

The dashed part of the orbit path shows where the satellite is in the earth's shadow,  

DLR